Temp
11 11 11 11 11 11 11 10 10 9 9 9 9 8 7 7 6 6 6 6 6 6 6 5 5 4 4 3 3 2 2 2 1 1 1 1 1 1 1 0 0 0 0 0 0 0 0 0 1 1 1 1 1 1 1 1 1 1 1 1 0 0 0 0 0 0 0 0 0
11 11 11 11 11 11 10 10 9 9 9 8 8 7 7 6 6 6 6 6 6 5 5 5 4 3 3 3 2 2 1 1 1 1 0 0 0 0 0 0 0 -0 -0 0 0 0 0 1 1 1 1 1 1 1 1 1 1 1 0 0 0 0 0 0 -0 -0 -0 -0 -0
11 11 11 11 11 10 10 9 9 9 8 8 7 7 6 6 6 6 5 5 5 5 4 4 3 2 2 2 1 1 1 1 0 0 0 0 0 0 0 -0 -0 -0 -0 -0 0 0 1 1 1 1 1 1 1 1 1 1 0 0 0 0 0 -0 -0 -0 -0 -0 -0 -0 -0
10 10 10 10 10 10 9 9 9 8 8 7 7 6 6 6 5 5 5 4 4 4 3 3 2 2 1 1 1 0 0 -0 -0 -0 -0 0 0 -0 -0 -0 -0 -0 -0 0 0 0 1 1 1 1 1 1 0 0 0 0 0 0 -0 -0 -0 -0 -0 -0 -0 -1 -1 -1 -1
9 9 9 9 9 9 9 8 8 7 7 7 6 6 6 5 5 5 4 4 3 3 2 2 2 1 1 0 0 -0 -0 -0 -0 -0 0 -0 -0 -0 -1 -1 -0 -0 -0 0 0 0 1 1 1 0 0 0 0 0 0 -0 -0 -0 -0 -0 -0 -1 -1 -1 -1 -1 -1 -1 -1
9 9 9 9 8 8 8 7 7 7 7 6 6 6 5 5 4 4 3 3 2 2 2 1 1 1 0 0 -0 -0 -0 -0 -0 -0 -0 -0 -1 -1 -1 -1 -0 -0 -0 0 0 0 0 0 0 0 0 -0 -0 -0 -0 -0 -0 -0 -1 -1 -1 -1 -1 -1 -1 -1 -1 -1 -1
8 8 8 8 8 7 7 7 7 7 6 6 6 6 5 4 4 3 3 2 2 2 1 1 1 0 0 -0 -0 -0 -0 -0 0 -0 -0 -1 -1 -1 -1 -1 -0 -0 -0 0 0 0 0 -0 -0 -0 -0 -0 -0 -0 -0 -0 -0 -1 -1 -1 -1 -1 -1 -1 -1 -1 -1 -1 -1
8 8 7 7 7 7 7 7 6 6 6 6 6 5 5 4 3 3 2 2 2 1 1 0 0 -0 -0 -0 -0 -0 0 0 -0 -0 -1 -1 -1 -1 -1 -0 -0 -0 -0 0 -0 -0 -0 -0 -0 -0 -0 -0 -0 -0 -0 -1 -1 -1 -1 -1 -1 -1 -1 -1 -1 -1 -1 -1 -1
7 7 7 7 7 6 6 6 6 6 5 5 5 5 4 4 3 3 2 2 1 1 0 -0 -0 -1 -0 -0 0 0 0 -0 -0 -1 -1 -1 -1 -1 -0 -0 -0 0 0 0 -0 -0 -0 -0 -0 -0 -0 -0 -0 -1 -1 -1 -1 -1 -1 -1 -1 -1 -1 -1 -1 -1 -1 -1 -1
7 7 6 6 6 6 6 6 5 5 5 5 4 4 4 3 3 2 2 1 1 0 -0 -0 -0 -0 0 0 0 0 -0 -1 -1 -1 -1 -1 -1 -0 -0 -0 -0 -0 -0 -0 -0 -0 -0 -0 -0 -0 -0 -1 -1 -1 -1 -1 -1 -1 -1 -1 -1 -1 -1 -1 -1 -1 -1 -1 -1
7 6 6 6 6 6 5 5 5 5 4 4 4 3 3 3 2 2 1 1 0 0 -0 0 0 0 0 0 -0 -0 -1 -1 -1 -1 -1 -1 -0 -0 -0 -0 -0 -0 -0 -0 -0 -0 -0 -0 -1 -1 -1 -1 -1 -1 -1 -1 -1 -1 -1 -1 -1 -1 -1 -1 -1 -1 -2 -2 -2
6 6 6 6 5 5 5 5 4 4 4 3 3 3 2 2 2 1 1 1 0 0 0 0 0 0 0 -0 -1 -1 -1 -1 -1 -1 -1 -0 -0 -0 -0 -0 -0 -0 -0 -0 -0 -1 -1 -1 -1 -1 -1 -1 -1 -1 -1 -1 -1 -1 -2 -2 -2 -2 -2 -2 -2 -2 -2 -2 -2
6 6 5 5 5 5 4 4 4 3 3 3 2 2 2 1 1 1 1 0 0 0 0 0 -0 -0 -1 -1 -1 -1 -1 -1 -1 -1 -1 -0 -0 -0 -0 -0 -0 -1 -1 -1 -1 -1 -1 -1 -1 -1 -1 -1 -1 -2 -2 -2 -2 -2 -2 -2 -2 -2 -2 -2 -2 -2 -2 -2 -2
6 5 5 5 4 4 4 3 3 3 2 2 2 2 1 1 1 1 0 0 0 0 -0 -0 -1 -1 -1 -1 -1 -1 -1 -1 -1 -1 -1 -0 -0 -1 -1 -1 -1 -1 -1 -1 -1 -1 -1 -1 -1 -2 -2 -2 -2 -2 -2 -2 -2 -2 -2 -2 -2 -2 -2 -2 -2 -2 -2 -3 -3
5 5 5 4 4 3 3 3 2 2 2 2 2 1 1 1 1 1 0 0 0 -0 -0 -1 -1 -1 -1 -1 -1 -1 -1 -1 -1 -1 -1 -1 -1 -1 -1 -1 -1 -1 -1 -1 -1 -2 -2 -2 -2 -2 -2 -2 -2 -2 -2 -2 -2 -2 -3 -3 -3 -3 -3 -3 -3 -3 -3 -3 -3
5 5 4 4 3 3 3 2 2 2 2 1 1 1 1 1 1 0 0 0 -0 -0 -1 -1 -1 -1 -1 -1 -1 -1 -1 -1 -1 -1 -1 -1 -1 -1 -1 -1 -1 -1 -1 -2 -2 -2 -2 -2 -2 -2 -2 -2 -2 -3 -3 -3 -3 -3 -3 -3 -3 -3 -3 -3 -3 -3 -3 -3 -3
5 4 4 4 3 3 2 2 2 2 1 1 1 1 1 1 0 0 0 -0 -0 -1 -1 -1 -1 -1 -1 -1 -1 -1 -1 -1 -1 -1 -1 -1 -1 -1 -1 -1 -2 -2 -2 -2 -2 -2 -2 -2 -2 -2 -3 -3 -3 -3 -3 -3 -3 -3 -3 -3 -3 -3 -3 -3 -3 -3 -3 -4 -4
4 4 4 3 3 3 2 2 2 1 1 1 1 0 0 0 0 -0 -0 -0 -1 -1 -1 -1 -2 -2 -1 -1 -1 -1 -1 -1 -1 -1 -1 -1 -1 -1 -1 -2 -2 -2 -2 -2 -2 -2 -2 -2 -3 -3 -3 -3 -3 -3 -3 -3 -3 -3 -4 -4 -4 -4 -4 -4 -4 -4 -4 -4 -4
4 4 4 3 3 2 2 2 1 1 1 0 0 0 0 -0 -0 -0 -1 -1 -1 -1 -2 -2 -1 -1 -1 -1 -1 -1 -1 -1 -1 -1 -1 -1 -1 -2 -2 -2 -2 -2 -2 -2 -2 -3 -3 -3 -3 -3 -3 -3 -3 -3 -4 -4 -4 -4 -4 -4 -4 -4 -4 -4 -4 -4 -4 -4 -4
4 3 3 3 2 2 2 1 1 1 0 0 0 -0 -0 -0 -0 -1 -1 -1 -1 -1 -2 -1 -1 -1 -1 -1 -1 -1 -1 -1 -1 -1 -1 -2 -2 -2 -2 -2 -2 -2 -2 -3 -3 -3 -3 -3 -3 -3 -3 -4 -4 -4 -4 -4 -4 -4 -4 -4 -4 -4 -4 -4 -4 -4 -4 -4 -5
3 3 2 2 2 1 1 1 0 0 0 0 -0 -0 -0 -0 -1 -1 -1 -1 -1 -1 -1 -1 -1 -1 -1 -1 -1 -1 -1 -1 -1 -2 -2 -2 -2 -2 -2 -2 -2 -3 -3 -3 -3 -3 -3 -3 -3 -4 -4 -4 -4 -4 -4 -4 -4 -4 -4 -4 -4 -4 -4 -4 -4 -5 -5 -5 -5
3 2 2 2 1 1 1 0 -0 -0 -0 -0 -0 -0 -0 -1 -1 -1 -1 -1 -1 -1 -1 -1 -1 -1 -1 -1 -1 -1 -1 -1 -2 -2 -2 -2 -2 -2 -2 -3 -3 -3 -3 -3 -3 -3 -3 -4 -4 -4 -4 -4 -4 -4 -4 -4 -4 -4 -4 -4 -4 -4 -5 -5 -5 -5 -5 -5 -5
3 2 2 1 1 1 0 -0 -0 -0 -0 -0 -0 -1 -1 -1 -1 -1 -1 -1 -1 -1 -1 -1 -1 -1 -1 -1 -1 -1 -2 -2 -2 -2 -2 -2 -2 -3 -3 -3 -3 -3 -3 -3 -3 -4 -4 -4 -4 -4 -4 -4 -4 -4 -4 -4 -4 -4 -4 -4 -5 -5 -5 -5 -5 -5 -5 -5 -5
2 2 1 1 1 0 0 -0 -0 -0 -0 -1 -1 -1 -1 -1 -1 -1 -1 -1 -1 -1 -1 -1 -1 -1 -1 -1 -2 -2 -2 -2 -2 -2 -2 -3 -3 -3 -3 -3 -3 -3 -3 -4 -4 -4 -4 -4 -4 -4 -4 -4 -4 -4 -4 -4 -4 -4 -5 -5 -5 -5 -5 -5 -5 -5 -5 -5 -6
2 1 1 1 0 0 -0 -0 -0 -0 -0 -0 -0 -1 -1 -1 -1 -1 -1 -1 -1 -1 -1 -1 -1 -2 -2 -2 -2 -2 -2 -2 -2 -3 -3 -3 -3 -3 -3 -3 -3 -4 -4 -4 -4 -4 -4 -4 -4 -4 -4 -4 -4 -4 -4 -4 -5 -5 -5 -5 -5 -5 -5 -5 -5 -5 -6 -6 -6
1 1 1 1 0 0 -0 -0 -0 -0 -0 -0 -1 -1 -1 -1 -1 -1 -1 -1 -1 -1 -1 -2 -2 -2 -2 -2 -2 -2 -2 -3 -3 -3 -3 -3 -3 -3 -3 -4 -4 -4 -4 -4 -4 -4 -4 -4 -4 -4 -4 -4 -4 -4 -5 -5 -5 -5 -5 -5 -5 -5 -5 -5 -6 -6 -6 -6 -6
1 1 1 0 0 0 0 -0 -0 -0 -1 -1 -1 -1 -1 -1 -1 -1 -1 -1 -1 -2 -2 -2 -2 -2 -2 -2 -2 -3 -3 -3 -3 -3 -3 -3 -3 -4 -4 -4 -4 -4 -4 -4 -4 -4 -4 -4 -4 -4 -4 -4 -5 -5 -5 -5 -5 -5 -5 -5 -5 -6 -6 -6 -6 -6 -7 -7 -7
1 1 1 0 0 0 -0 -0 -0 -1 -1 -1 -1 -1 -1 -1 -1 -1 -1 -1 -2 -2 -2 -2 -2 -2 -2 -3 -3 -3 -3 -3 -3 -3 -3 -4 -4 -4 -4 -4 -4 -4 -4 -4 -4 -4 -4 -4 -4 -5 -5 -5 -5 -5 -5 -5 -5 -5 -6 -6 -6 -6 -6 -6 -7 -7 -7 -7 -7
0 0 0 0 -0 -0 -0 -1 -1 -1 -1 -1 -1 -1 -1 -1 -1 -1 -2 -2 -2 -2 -2 -2 -2 -3 -3 -3 -3 -3 -3 -3 -3 -4 -4 -4 -4 -4 -4 -4 -4 -4 -4 -4 -4 -4 -5 -5 -5 -5 -5 -5 -5 -5 -5 -6 -6 -6 -6 -6 -6 -7 -7 -7 -7 -7 -7 -7 -7
0 0 0 -0 -0 -0 -0 -0 -1 -1 -1 -1 -1 -1 -1 -1 -1 -2 -2 -2 -2 -2 -2 -2 -3 -3 -3 -3 -3 -3 -3 -4 -4 -4 -4 -4 -4 -4 -4 -4 -4 -4 -4 -4 -5 -5 -5 -5 -5 -5 -5 -5 -6 -6 -6 -6 -6 -6 -6 -6 -7 -7 -7 -7 -7 -7 -7 -7 -6
0 0 -0 -0 -0 -0 -0 -0 -1 -1 -1 -1 -1 -1 -1 -2 -2 -2 -2 -2 -2 -2 -3 -3 -3 -3 -3 -3 -3 -4 -4 -4 -4 -4 -4 -4 -4 -4 -4 -4 -4 -5 -5 -5 -5 -5 -5 -5 -5 -6 -6 -6 -6 -6 -6 -6 -7 -7 -7 -7 -7 -7 -7 -7 -7 -7 -6 -6 -6
0 0 0 -0 -0 -0 -0 -0 -1 -1 -1 -1 -1 -2 -2 -2 -2 -2 -2 -2 -2 -2 -3 -3 -3 -3 -3 -3 -4 -4 -4 -4 -4 -4 -4 -4 -4 -4 -5 -5 -5 -5 -5 -5 -5 -5 -5 -6 -6 -6 -6 -6 -6 -7 -7 -7 -7 -7 -7 -7 -7 -7 -7 -7 -7 -7 -6 -6 -6
0 0 0 -0 -0 -0 -0 -1 -1 -1 -1 -1 -2 -2 -2 -2 -2 -2 -2 -2 -2 -3 -3 -3 -3 -3 -4 -4 -4 -4 -4 -4 -4 -4 -4 -4 -5 -5 -5 -5 -5 -5 -5 -5 -5 -6 -6 -6 -6 -6 -6 -7 -7 -7 -7 -7 -7 -8 -7 -7 -7 -7 -7 -7 -7 -6 -6 -6 -6
0 0 0 -0 -0 -0 -1 -1 -1 -1 -2 -2 -2 -2 -2 -2 -2 -3 -3 -3 -3 -3 -3 -3 -3 -4 -4 -4 -4 -4 -4 -4 -4 -4 -5 -5 -5 -5 -5 -5 -5 -5 -6 -6 -6 -6 -6 -6 -6 -7 -7 -7 -7 -7 -8 -8 -8 -7 -7 -7 -7 -7 -6 -6 -6 -6 -6 -6 -6
1 0 0 -0 -1 -1 -1 -1 -2 -2 -2 -2 -2 -2 -2 -3 -3 -3 -3 -3 -3 -3 -3 -4 -4 -4 -4 -4 -4 -4 -4 -4 -5 -5 -5 -5 -5 -5 -5 -5 -6 -6 -6 -6 -6 -6 -6 -7 -7 -7 -7 -7 -8 -8 -8 -8 -7 -7 -7 -7 -6 -6 -6 -6 -6 -6 -6 -6 -6
1 0 -0 -1 -1 -1 -1 -2 -2 -2 -2 -2 -2 -3 -3 -3 -3 -3 -3 -3 -3 -3 -4 -4 -4 -4 -4 -4 -4 -4 -5 -5 -5 -5 -5 -5 -5 -5 -6 -6 -6 -6 -6 -6 -6 -7 -7 -7 -7 -7 -8 -8 -8 -8 -8 -8 -7 -7 -7 -7 -6 -6 -6 -6 -6 -6 -6 -6 -6
0 -0 -0 -1 -1 -1 -2 -2 -2 -2 -2 -3 -3 -3 -3 -3 -3 -3 -3 -3 -3 -4 -4 -4 -4 -4 -4 -4 -5 -5 -5 -5 -5 -5 -5 -5 -6 -6 -6 -6 -6 -6 -6 -7 -7 -7 -7 -7 -7 -8 -8 -8 -8 -8 -8 -8 -8 -7 -7 -7 -7 -6 -6 -6 -6 -6 -6 -6 -6
0 -0 -1 -1 -1 -2 -2 -2 -3 -3 -3 -3 -3 -3 -3 -3 -3 -3 -3 -3 -4 -4 -4 -4 -4 -4 -4 -5 -5 -5 -5 -5 -5 -5 -6 -6 -6 -6 -6 -6 -6 -6 -7 -7 -7 -7 -7 -8 -8 -8 -8 -8 -8 -8 -8 -8 -8 -7 -7 -7 -7 -7 -6 -6 -6 -6 -6 -6 -6
-0 -1 -1 -1 -2 -2 -2 -3 -3 -3 -3 -3 -3 -3 -3 -3 -3 -3 -3 -3 -4 -4 -4 -4 -4 -5 -5 -5 -5 -5 -5 -5 -5 -6 -6 -6 -6 -6 -6 -6 -7 -7 -7 -7 -7 -7 -8 -8 -8 -8 -8 -8 -8 -8 -8 -8 -8 -7 -7 -7 -7 -7 -6 -6 -6 -7 -7 -7 -7
-1 -1 -2 -2 -2 -3 -3 -3 -3 -3 -3 -3 -3 -3 -3 -3 -3 -3 -3 -4 -4 -4 -4 -5 -5 -5 -5 -5 -5 -5 -5 -6 -6 -6 -6 -6 -6 -6 -7 -7 -7 -7 -7 -7 -8 -8 -8 -9 -9 -9 -9 -8 -8 -8 -8 -8 -7 -7 -7 -7 -7 -7 -7 -7 -7 -7 -7 -7 -7
-1 -2 -2 -3 -3 -3 -3 -3 -3 -3 -3 -3 -3 -3 -3 -3 -3 -3 -4 -4 -4 -4 -5 -5 -5 -5 -5 -5 -5 -6 -6 -6 -6 -6 -6 -6 -7 -7 -7 -7 -7 -7 -7 -8 -8 -9 -9 -9 -9 -9 -9 -8 -8 -8 -8 -7 -7 -7 -7 -7 -7 -7 -7 -7 -8 -8 -8 -8 -8
Height
1479 1478 1477 1477 1476 1476 1476 1476 1476 1475 1476 1476 1477 1478 1479 1479 1480 1481 1482 1483 1484 1484 1485 1486 1487 1487 1487 1487 1488 1488 1488 1488 1489 1489 1489 1489 1488 1488 1488 1488 1488 1488 1488 1488 1488 1488 1487 1487 1487 1486 1485 1484 1484 1483 1482 1481 1480 1479 1478 1477 1476 1475 1474 1474 1473 1472 1472 1472 1471
1477 1477 1476 1475 1474 1474 1474 1474 1474 1474 1474 1475 1476 1477 1478 1478 1479 1480 1481 1482 1482 1483 1483 1484 1485 1485 1486 1486 1486 1487 1487 1487 1487 1487 1486 1486 1486 1486 1487 1487 1487 1487 1487 1487 1486 1486 1486 1485 1485 1484 1483 1482 1481 1480 1479 1479 1478 1477 1476 1475 1474 1473 1472 1471 1471 1470 1470 1469 1469
1476 1475 1474 1474 1473 1473 1473 1473 1473 1473 1474 1475 1476 1476 1477 1477 1478 1479 1480 1480 1480 1481 1482 1483 1483 1484 1484 1485 1485 1485 1486 1486 1485 1485 1485 1484 1485 1485 1485 1486 1486 1486 1485 1485 1485 1485 1484 1484 1483 1482 1481 1480 1479 1478 1477 1476 1476 1475 1474 1472 1472 1471 1470 1469 1469 1468 1468 1467 1466
1475 1474 1473 1473 1473 1472 1472 1472 1473 1474 1474 1475 1475 1475 1476 1477 1477 1478 1478 1479 1479 1480 1481 1482 1482 1483 1483 1484 1484 1484 1484 1484 1483 1483 1483 1484 1484 1484 1484 1484 1484 1484 1484 1484 1484 1483 1482 1482 1481 1480 1479 1478 1477 1476 1474 1474 1473 1472 1471 1470 1469 1469 1468 1467 1466 1466 1465 1465 1464
1474 1474 1473 1473 1473 1473 1473 1473 1474 1474 1474 1474 1474 1474 1475 1476 1477 1477 1477 1478 1479 1479 1480 1480 1481 1481 1482 1482 1481 1481 1481 1481 1481 1482 1482 1482 1483 1483 1483 1483 1483 1483 1482 1482 1482 1481 1480 1479 1479 1477 1476 1475 1474 1473 1472 1472 1471 1470 1469 1468 1467 1467 1466 1465 1464 1464 1463 1463 1462
1474 1474 1474 1474 1474 1474 1474 1474 1474 1474 1474 1474 1474 1475 1475 1476 1476 1476 1477 1477 1478 1478 1479 1479 1479 1479 1479 1479 1479 1479 1479 1480 1480 1480 1481 1481 1481 1481 1481 1481 1481 1481 1480 1480 1479 1479 1478 1477 1476 1475 1474 1473 1472 1471 1470 1470 1469 1468 1467 1466 1465 1464 1464 1463 1462 1462 1461 1460 1460
1475 1475 1474 1474 1474 1474 1474 1474 1474 1474 1474 1474 1475 1475 1475 1475 1475 1475 1475 1476 1476 1477 1477 1477 1477 1477 1477 1477 1477 1478 1478 1479 1479 1479 1479 1479 1479 1479 1479 1479 1479 1479 1479 1478 1477 1476 1476 1475 1474 1473 1471 1471 1469 1469 1468 1467 1466 1465 1464 1463 1463 1462 1462 1461 1460 1459 1459 1458 1458
1475 1475 1474 1474 1474 1474 1474 1474 1474 1474 1474 1474 1474 1474 1474 1474 1474 1474 1474 1474 1475 1475 1475 1475 1475 1475 1475 1476 1476 1477 1477 1478 1478 1478 1478 1478 1478 1478 1478 1478 1477 1477 1476 1476 1475 1474 1474 1473 1472 1470 1469 1468 1467 1466 1465 1465 1464 1463 1462 1461 1460 1460 1459 1459 1458 1458 1457 1456 1456
1474 1474 1474 1474 1474 1474 1474 1474 1474 1474 1474 1473 1473 1473 1473 1473 1472 1473 1473 1474 1474 1474 1474 1474 1474 1474 1475 1475 1476 1476 1476 1476 1476 1476 1476 1476 1477 1476 1476 1476 1475 1475 1474 1474 1473 1472 1471 1470 1469 1468 1467 1466 1465 1464 1464 1463 1462 1461 1460 1459 1458 1458 1457 1457 1456 1456 1455 1454 1454
1474 1474 1474 1474 1474 1474 1474 1474 1474 1473 1473 1473 1472 1472 1472 1472 1472 1472 1472 1473 1473 1473 1473 1473 1473 1474 1474 1475 1475 1474 1474 1474 1474 1475 1475 1475 1475 1475 1474 1474 1474 1473 1472 1472 1471 1470 1469 1468 1467 1466 1465 1464 1464 1462 1462 1461 1460 1459 1458 1457 1456 1455 1455 1454 1454 1454 1453 1452 1451
1474 1474 1474 1474 1474 1473 1473 1473 1473 1472 1472 1472 1471 1471 1471 1471 1471 1472 1472 1472 1472 1472 1472 1472 1473 1473 1473 1473 1473 1473 1473 1473 1474 1474 1474 1474 1474 1474 1473 1472 1472 1471 1470 1469 1469 1468 1467 1466 1465 1464 1463 1462 1461 1460 1459 1459 1458 1457 1456 1455 1454 1454 1453 1452 1452 1451 1450 1450 1449
1473 1473 1473 1473 1473 1472 1472 1472 1472 1471 1471 1471 1471 1471 1471 1471 1471 1471 1471 1471 1471 1471 1471 1471 1472 1472 1471 1471 1471 1472 1472 1472 1473 1473 1473 1472 1472 1472 1471 1470 1470 1469 1468 1468 1467 1466 1465 1464 1463 1462 1460 1460 1459 1458 1457 1456 1455 1454 1453 1452 1452 1451 1450 1449 1449 1449 1448 1447 1447
1472 1472 1472 1472 1472 1471 1471 1471 1470 1470 1470 1470 1470 1470 1470 1470 1470 1470 1470 1470 1470 1470 1470 1470 1470 1470 1470 1470 1471 1471 1471 1471 1472 1471 1471 1471 1470 1470 1469 1468 1468 1467 1466 1465 1464 1464 1463 1461 1460 1459 1458 1457 1456 1455 1455 1454 1453 1452 1451 1450 1449 1449 1448 1447 1446 1446 1445 1445 1444
1471 1471 1471 1471 1470 1470 1470 1469 1469 1469 1469 1469 1469 1469 1469 1469 1469 1469 1469 1469 1469 1469 1469 1469 1469 1469 1469 1470 1470 1470 1470 1470 1470 1470 1469 1469 1468 1468 1467 1466 1465 1464 1464 1463 1462 1461 1460 1459 1458 1457 1456 1455 1454 1453 1452 1451 1450 1449 1449 1448 1447 1446 1445 1444 1444 1443 1443 1442 1441
1470 1470 1469 1469 1469 1469 1469 1469 1468 1468 1468 1468 1468 1468 1468 1468 1468 1468 1469 1469 1469 1469 1469 1468 1468 1469 1469 1469 1469 1469 1469 1469 1469 1468 1468 1467 1466 1466 1465 1464 1463 1462 1461 1460 1459 1459 1458 1457 1456 1454 1454 1452 1451 1450 1449 1449 1448 1447 1446 1445 1444 1443 1443 1442 1441 1441 1440 1439 1439
1469 1469 1468 1468 1468 1468 1468 1468 1468 1467 1467 1467 1467 1467 1467 1467 1467 1468 1468 1468 1468 1467 1467 1467 1467 1467 1468 1468 1468 1468 1468 1467 1467 1466 1466 1465 1464 1463 1463 1462 1461 1460 1459 1458 1457 1456 1455 1454 1453 1452 1451 1450 1449 1448 1447 1446 1445 1444 1443 1442 1442 1441 1440 1439 1439 1438 1437 1437 1436
1468 1468 1468 1468 1468 1468 1468 1467 1467 1466 1466 1466 1465 1465 1465 1466 1466 1467 1467 1466 1466 1465 1465 1465 1465 1466 1466 1466 1466 1466 1466 1465 1465 1464 1464 1463 1462 1461 1460 1459 1458 1457 1457 1456 1454 1454 1453 1452 1451 1450 1449 1447 1446 1445 1444 1443 1442 1441 1440 1439 1439 1438 1437 1436 1436 1435 1434 1434 1433
1468 1467 1467 1467 1467 1467 1467 1466 1465 1465 1464 1464 1463 1464 1464 1465 1465 1465 1465 1465 1464 1464 1464 1464 1464 1464 1465 1465 1464 1464 1464 1464 1463 1462 1461 1460 1460 1459 1458 1457 1456 1455 1454 1453 1452 1451 1450 1449 1448 1447 1446 1445 1444 1443 1442 1440 1439 1439 1438 1437 1436 1435 1434 1434 1433 1433 1432 1431 1430
1467 1467 1467 1466 1466 1466 1465 1464 1464 1463 1462 1461 1462 1463 1463 1464 1464 1464 1463 1463 1463 1463 1463 1463 1463 1464 1464 1463 1463 1463 1462 1462 1461 1460 1459 1458 1457 1457 1456 1455 1454 1453 1452 1451 1450 1449 1447 1446 1445 1444 1443 1442 1441 1440 1439 1438 1437 1436 1435 1434 1433 1432 1432 1431 1430 1430 1429 1429 1428
1466 1466 1466 1465 1465 1464 1464 1463 1462 1461 1460 1461 1461 1462 1462 1462 1462 1462 1462 1461 1462 1462 1462 1462 1462 1462 1462 1462 1461 1461 1460 1459 1459 1458 1457 1456 1455 1454 1454 1453 1452 1450 1449 1448 1447 1446 1444 1444 1442 1441 1440 1439 1438 1437 1436 1435 1434 1433 1432 1431 1430 1430 1429 1428 1428 1427 1427 1426 1425
1466 1465 1464 1464 1463 1463 1462 1461 1460 1460 1460 1460 1461 1461 1461 1461 1461 1461 1461 1461 1461 1461 1461 1461 1461 1461 1460 1460 1459 1459 1458 1457 1457 1456 1455 1454 1453 1452 1451 1450 1449 1448 1447 1446 1444 1443 1442 1441 1440 1439 1438 1437 1436 1434 1434 1432 1431 1430 1429 1429 1428 1427 1426 1426 1425 1424 1424 1424 1423
1465 1464 1464 1463 1462 1461 1460 1460 1459 1459 1459 1460 1460 1460 1460 1460 1460 1460 1460 1460 1461 1461 1460 1460 1460 1459 1459 1459 1458 1457 1456 1455 1454 1454 1453 1452 1451 1450 1449 1448 1447 1445 1444 1443 1442 1440 1439 1438 1437 1436 1435 1434 1433 1432 1431 1430 1429 1428 1427 1426 1425 1424 1424 1423 1422 1422 1421 1421 1420
1464 1463 1462 1461 1460 1459 1459 1459 1459 1459 1459 1459 1459 1459 1459 1459 1459 1459 1459 1460 1460 1460 1459 1459 1459 1458 1458 1457 1456 1455 1454 1453 1452 1451 1451 1450 1449 1448 1446 1445 1444 1443 1441 1440 1439 1438 1437 1436 1435 1434 1433 1432 1430 1429 1428 1427 1426 1425 1424 1423 1422 1421 1420 1420 1419 1419 1418 1418 1417
1461 1461 1460 1459 1459 1459 1459 1458 1458 1458 1459 1459 1459 1458 1458 1458 1458 1458 1459 1459 1459 1459 1459 1458 1457 1457 1456 1455 1454 1453 1452 1451 1450 1449 1448 1447 1446 1445 1444 1443 1442 1440 1439 1438 1437 1436 1435 1434 1433 1432 1430 1429 1428 1427 1426 1425 1424 1423 1421 1420 1419 1418 1417 1417 1416 1416 1415 1414 1414
1460 1459 1459 1459 1459 1458 1458 1458 1458 1458 1458 1458 1457 1457 1457 1457 1457 1457 1458 1458 1458 1457 1457 1456 1456 1455 1454 1453 1452 1451 1450 1449 1448 1446 1445 1444 1443 1442 1441 1440 1439 1438 1437 1436 1435 1434 1433 1432 1431 1430 1429 1427 1426 1425 1424 1422 1421 1420 1419 1418 1417 1415 1414 1413 1413 1412 1412 1411 1411
1460 1459 1459 1459 1458 1457 1457 1457 1457 1457 1456 1456 1456 1455 1456 1456 1456 1457 1456 1456 1456 1456 1455 1454 1454 1453 1451 1450 1449 1449 1447 1446 1445 1444 1443 1442 1441 1440 1439 1438 1437 1436 1435 1434 1433 1432 1431 1430 1429 1428 1427 1425 1424 1422 1421 1419 1418 1417 1416 1415 1414 1413 1411 1410 1409 1409 1408 1408 1407
1459 1459 1458 1458 1457 1456 1456 1456 1455 1455 1455 1455 1454 1454 1455 1455 1455 1455 1455 1455 1454 1454 1453 1452 1451 1450 1449 1448 1447 1446 1445 1444 1443 1442 1441 1440 1439 1438 1437 1436 1435 1434 1433 1432 1431 1430 1429 1428 1427 1426 1424 1423 1421 1420 1418 1417 1415 1414 1413 1412 1411 1410 1409 1407 1406 1405 1404 1404 1403
1458 1457 1457 1456 1455 1455 1455 1454 1454 1454 1454 1454 1454 1454 1454 1454 1454 1454 1454 1453 1453 1452 1451 1450 1449 1448 1447 1446 1445 1444 1443 1442 1441 1440 1439 1438 1437 1435 1434 1434 1432 1432 1431 1430 1429 1428 1426 1425 1424 1423 1422 1420 1419 1417 1416 1414 1413 1411 1410 1409 1408 1407 1406 1404 1403 1402 1401 1400 1399
1456 1456 1455 1455 1454 1454 1454 1453 1453 1453 1453 1453 1454 1454 1453 1453 1453 1452 1452 1451 1451 1450 1449 1448 1447 1446 1445 1444 1443 1442 1440 1439 1439 1438 1437 1435 1434 1433 1432 1431 1430 1429 1428 1427 1426 1425 1424 1423 1421 1420 1419 1418 1416 1414 1413 1412 1410 1409 1407 1406 1404 1404 1403 1401 1400 1399 1398 1397 1396
1455 1455 1454 1454 1454 1453 1453 1453 1453 1453 1453 1453 1453 1452 1452 1451 1451 1451 1450 1449 1449 1448 1447 1446 1444 1444 1443 1442 1440 1439 1439 1438 1437 1436 1434 1434 1432 1431 1430 1429 1428 1427 1426 1425 1424 1422 1421 1420 1419 1417 1416 1415 1414 1412 1410 1409 1407 1406 1404 1403 1401 1400 1399 1398 1397 1396 1395 1394 1393
1454 1454 1454 1453 1453 1453 1453 1453 1453 1453 1452 1452 1451 1451 1450 1450 1449 1449 1449 1448 1446 1445 1444 1444 1443 1442 1440 1439 1439 1438 1437 1435 1434 1434 1433 1431 1430 1429 1428 1426 1425 1424 1423 1422 1421 1419 1418 1417 1416 1414 1413 1412 1410 1409 1407 1406 1404 1402 1401 1399 1398 1397 1396 1395 1394 1393 1393 1392 1391
1454 1453 1453 1452 1452 1452 1452 1452 1452 1451 1451 1450 1449 1449 1449 1448 1448 1447 1447 1445 1444 1444 1443 1442 1441 1439 1439 1438 1437 1436 1434 1434 1433 1431 1430 1429 1428 1427 1425 1424 1423 1422 1421 1419 1418 1417 1415 1414 1413 1411 1410 1409 1407 1405 1404 1402 1400 1399 1398 1396 1395 1394 1394 1393 1392 1391 1390 1389 1389
1452 1452 1452 1452 1452 1452 1452 1451 1450 1449 1449 1448 1448 1447 1447 1447 1446 1445 1444 1444 1443 1442 1441 1440 1439 1438 1437 1436 1435 1434 1433 1431 1430 1429 1428 1427 1426 1424 1423 1422 1420 1419 1418 1417 1415 1414 1413 1411 1410 1409 1407 1405 1404 1402 1400 1399 1397 1396 1395 1394 1393 1392 1391 1391 1390 1389 1388 1387 1386
1451 1451 1451 1451 1451 1451 1450 1449 1449 1448 1447 1446 1446 1446 1446 1445 1444 1443 1442 1442 1441 1440 1439 1438 1437 1436 1435 1434 1433 1432 1430 1429 1428 1427 1426 1425 1424 1422 1420 1419 1418 1417 1416 1414 1413 1411 1410 1409 1407 1405 1404 1402 1400 1399 1397 1396 1395 1394 1393 1392 1391 1390 1389 1389 1388 1386 1385 1384 1384
1450 1449 1449 1449 1449 1449 1448 1448 1447 1446 1445 1445 1445 1444 1444 1443 1442 1441 1440 1440 1439 1438 1437 1436 1435 1434 1433 1432 1431 1430 1429 1427 1426 1425 1424 1422 1421 1420 1418 1417 1415 1414 1413 1412 1410 1409 1407 1405 1404 1402 1401 1399 1397 1396 1394 1394 1393 1391 1390 1389 1389 1388 1387 1386 1385 1384 1383 1382 1381
1449 1448 1448 1448 1448 1447 1447 1446 1445 1445 1444 1444 1443 1443 1441 1440 1440 1439 1439 1438 1437 1436 1435 1434 1433 1432 1431 1430 1429 1428 1426 1425 1424 1423 1421 1420 1419 1417 1416 1414 1413 1412 1410 1409 1408 1406 1404 1403 1401 1399 1398 1396 1395 1394 1393 1392 1390 1389 1388 1387 1386 1385 1384 1384 1382 1381 1380 1379 1379
1448 1447 1447 1447 1446 1446 1445 1445 1444 1444 1443 1442 1441 1440 1439 1439 1438 1438 1437 1436 1435 1434 1433 1432 1431 1430 1429 1428 1427 1425 1424 1423 1422 1420 1419 1418 1417 1415 1413 1412 1410 1409 1408 1407 1405 1404 1402 1400 1398 1397 1395 1394 1393 1392 1391 1389 1389 1387 1386 1385 1384 1383 1382 1380 1379 1378 1377 1377 1376
1446 1446 1446 1445 1445 1444 1444 1444 1443 1442 1441 1440 1439 1439 1438 1438 1437 1436 1435 1435 1434 1432 1431 1430 1429 1428 1427 1426 1425 1423 1422 1421 1420 1419 1417 1416 1414 1413 1411 1409 1408 1406 1405 1404 1403 1401 1399 1397 1396 1395 1394 1393 1391 1390 1389 1388 1387 1385 1384 1383 1382 1380 1379 1378 1377 1376 1375 1375 1374
1445 1445 1444 1444 1444 1443 1442 1442 1441 1440 1439 1438 1437 1437 1437 1436 1436 1435 1434 1433 1432 1431 1429 1428 1427 1426 1425 1424 1423 1421 1420 1419 1418 1417 1415 1414 1412 1411 1409 1407 1405 1404 1403 1402 1400 1398 1397 1395 1394 1393 1392 1391 1390 1389 1388 1386 1385 1384 1383 1381 1380 1379 1378 1377 1376 1375 1374 1373 1373
1444 1444 1443 1443 1442 1441 1440 1440 1439 1438 1437 1437 1436 1436 1436 1435 1434 1433 1432 1431 1430 1429 1428 1427 1425 1424 1423 1422 1421 1419 1418 1417 1416 1414 1413 1412 1410 1409 1407 1405 1404 1402 1400 1399 1398 1396 1394 1393 1392 1391 1390 1389 1389 1387 1386 1385 1384 1382 1381 1380 1379 1377 1376 1375 1374 1373 1372 1370 1369
1443 1442 1441 1441 1440 1439 1439 1438 1437 1436 1436 1436 1436 1435 1434 1433 1432 1431 1430 1429 1428 1427 1426 1425 1424 1422 1421 1420 1419 1417 1416 1414 1414 1412 1411 1409 1408 1407 1405 1403 1401 1400 1398 1397 1395 1394 1393 1391 1390 1390 1389 1388 1387 1386 1385 1384 1382 1381 1379 1378 1377 1375 1373 1372 1370 1369 1368 1367 1366
Wind_Speed
30 31 31 30 30 30 33 33 32 31 29 28 28 25 23 22 21 20 19 19 18 17 16 16 15 14 14 14 14 14 14 14 15 15 16 16 16 17 18 19 20 21 22 23 24 24 25 25 25 25 27 29 30 31 31 31 31 31 31 31 31 32 32 32 32 32 32 31 31
32 31 31 31 29 28 29 30 30 30 29 27 25 23 20 20 19 18 17 17 15 14 14 13 13 14 14 15 15 15 15 16 16 17 18 18 19 20 21 21 21 22 22 23 23 23 24 24 25 27 29 31 31 32 31 31 31 31 31 31 31 31 31 32 32 32 31 31 31
31 31 30 28 27 26 27 28 28 28 26 22 20 19 18 17 16 16 15 14 12 12 11 11 12 12 13 14 14 14 14 15 15 16 18 19 21 21 21 21 21 21 21 22 23 23 24 25 27 29 31 32 32 32 32 31 31 31 31 31 31 31 31 31 31 31 31 31 31
29 27 26 23 22 23 25 25 24 23 21 19 17 16 16 14 14 13 12 11 10 10 10 11 11 11 11 11 12 12 13 14 15 16 18 19 20 20 20 20 20 21 21 22 23 24 25 27 29 31 32 32 32 32 32 31 31 31 31 31 31 31 31 31 31 31 30 31 30
24 23 21 18 17 18 19 20 19 18 18 17 16 15 13 12 11 11 10 10 10 10 11 12 12 12 12 12 12 13 14 15 16 18 19 20 20 20 19 20 20 21 22 23 24 25 26 28 30 31 31 31 31 31 31 31 31 31 31 31 31 31 31 31 31 30 30 30 30
20 19 16 15 14 14 14 15 15 15 16 16 15 13 12 11 11 11 11 12 12 13 14 14 15 16 16 16 16 16 16 17 19 20 21 21 20 20 20 20 21 22 23 24 25 26 27 28 30 30 30 31 31 31 31 31 31 31 32 32 31 31 30 30 30 30 30 30 30
18 15 13 12 11 12 12 13 13 13 14 14 14 14 13 13 13 13 14 15 15 16 16 16 17 18 18 17 17 17 18 19 21 22 21 20 19 19 20 21 22 23 24 25 26 27 28 28 29 30 30 31 31 31 31 31 31 31 31 31 31 31 30 30 30 30 30 30 30
15 13 12 11 10 10 11 11 11 12 12 13 13 14 15 14 15 15 15 15 15 15 15 15 16 16 16 16 17 18 20 22 22 21 19 18 18 19 21 22 23 24 25 26 27 27 28 28 29 29 30 30 31 31 31 31 30 31 31 31 31 30 30 29 29 29 30 30 31
13 12 11 11 10 10 10 11 11 11 12 12 13 14 15 15 14 14 14 14 13 13 13 13 13 14 15 16 19 21 22 21 19 17 17 17 19 20 21 23 24 25 26 26 27 27 27 28 28 29 30 30 31 31 31 31 31 31 31 31 31 31 30 30 30 30 30 30 31
12 11 11 10 10 10 10 11 11 11 12 12 13 14 14 14 13 13 13 12 12 12 12 13 14 16 18 20 21 21 19 17 15 15 17 18 19 20 22 23 24 25 26 27 27 28 28 29 30 30 31 31 32 32 33 33 33 33 33 33 33 33 33 33 32 32 32 32 33
11 11 11 11 11 11 12 12 12 12 12 13 13 13 13 12 12 11 11 11 11 12 13 15 17 19 20 20 19 17 15 14 14 16 17 18 20 21 22 24 25 26 27 28 28 29 30 30 31 32 32 33 33 33 34 34 34 34 35 35 35 35 35 35 35 35 35 35 35
11 10 11 11 12 12 12 12 12 12 12 12 12 12 11 11 11 10 10 9 10 12 14 17 18 18 18 16 14 13 13 14 15 17 18 19 21 22 23 25 26 27 28 29 29 30 30 31 32 32 33 33 33 34 34 34 34 34 35 35 35 35 35 35 35 35 35 35 35
10 10 11 11 11 12 12 12 12 12 12 11 11 10 10 9 9 9 9 9 10 12 14 16 16 15 13 12 12 13 14 15 17 18 19 21 22 24 25 26 27 28 29 29 29 30 30 31 31 32 33 33 34 34 34 34 34 34 35 35 35 35 35 35 35 35 35 34 35
10 10 11 11 12 12 12 11 11 10 10 10 10 10 9 9 9 9 9 10 11 12 14 14 13 12 11 12 13 14 16 17 18 20 21 23 24 26 27 28 28 29 29 29 29 30 30 31 32 32 33 34 34 34 34 34 34 35 35 35 35 35 35 35 35 35 34 34 34
11 11 12 12 12 11 10 10 10 9 9 9 10 10 9 9 10 10 10 10 12 13 14 13 11 11 11 13 14 16 17 19 20 22 23 25 26 27 28 28 29 29 29 29 30 30 31 32 32 33 34 34 35 35 35 35 35 35 35 35 35 35 35 35 35 35 35 34 34
13 13 13 13 12 11 10 10 9 10 10 10 10 11 11 11 11 11 12 13 15 15 14 11 10 11 12 14 16 17 19 20 22 23 25 27 27 28 28 29 29 29 30 30 31 31 32 32 33 34 34 35 35 35 35 35 35 35 35 35 35 36 36 36 36 35 35 35 35
14 13 13 13 13 12 11 11 11 11 11 12 12 13 13 12 13 14 16 17 16 14 12 10 10 12 14 16 17 18 20 22 23 25 26 28 28 28 29 29 29 30 30 31 32 33 33 34 34 34 34 35 35 35 35 35 35 36 36 36 36 36 36 36 36 36 36 36 36
14 14 14 14 13 12 12 12 12 13 13 14 15 15 15 15 17 18 18 16 14 12 11 11 12 14 16 17 18 20 21 23 25 26 27 28 28 29 29 29 30 31 31 32 33 34 34 34 34 34 34 34 34 34 34 34 35 35 35 35 35 36 36 36 36 36 36 36 36
15 15 14 14 13 13 13 13 14 15 16 17 17 17 18 18 18 17 15 13 12 11 12 13 15 16 17 19 20 22 23 24 26 27 27 28 28 29 29 30 31 32 32 33 33 34 34 33 33 33 33 33 33 33 33 33 33 33 34 34 34 34 35 35 35 35 35 35 35
15 14 14 13 12 13 13 14 16 17 18 18 18 18 18 18 16 14 12 12 11 12 13 15 17 18 19 21 22 23 25 25 26 27 28 28 29 30 30 31 32 32 33 33 33 33 32 32 32 32 32 32 32 32 32 32 33 33 33 34 34 34 34 34 34 34 34 34 34
14 13 12 12 13 13 14 14 16 16 17 17 17 17 16 14 12 11 11 11 12 14 15 17 18 19 21 22 24 25 26 26 27 28 29 29 30 31 31 32 32 32 32 32 31 31 31 31 31 31 31 31 32 32 32 33 33 33 34 34 34 35 35 34 34 33 33 32 32
13 12 12 13 14 14 13 13 14 15 16 17 16 14 12 11 10 10 11 12 13 15 16 17 19 20 22 24 25 26 27 27 28 29 30 30 31 31 31 31 31 31 31 31 31 31 31 31 31 31 31 32 32 32 33 33 33 34 34 35 35 35 35 34 34 33 33 33 33
16 15 14 14 14 14 13 13 14 15 16 16 14 11 10 9 9 10 11 13 14 15 16 18 20 22 23 24 26 27 27 28 29 30 30 30 30 30 30 30 30 30 30 30 30 31 31 31 31 32 32 32 32 33 33 33 34 34 35 35 35 35 35 35 35 35 35 35 36
16 16 15 14 14 13 13 14 16 18 17 14 11 9 8 8 9 10 11 13 14 15 17 19 21 22 24 25 26 27 28 29 30 30 30 29 29 29 29 29 29 30 30 30 30 31 31 31 31 32 32 32 32 32 33 34 34 34 35 35 35 35 36 36 36 36 37 37 38
17 17 16 15 15 16 18 20 20 18 15 11 9 8 8 8 9 11 12 13 15 17 19 21 22 23 25 26 27 27 28 29 29 29 29 29 28 28 29 29 29 30 30 30 30 30 31 31 31 31 31 32 32 32 33 33 34 34 35 35 36 36 37 38 38 39 39 39 39
19 19 19 20 22 24 24 22 18 14 10 8 7 7 7 8 10 11 13 15 17 19 20 22 23 24 25 26 27 27 27 27 27 27 28 28 28 28 29 29 29 30 30 30 30 30 30 31 31 31 31 32 32 33 34 35 35 36 36 36 36 37 38 39 40 40 39 39 39
21 22 23 24 23 22 18 14 11 8 7 7 7 7 8 10 12 13 15 17 19 21 22 23 24 25 26 26 26 26 26 26 26 26 27 27 28 28 29 29 29 30 30 30 31 31 31 31 32 32 32 33 33 34 35 36 37 37 37 38 38 38 38 39 40 40 41 42 42
22 21 19 17 14 11 9 8 8 8 7 7 7 9 11 13 14 15 17 19 21 23 24 25 25 26 26 26 26 26 26 26 26 26 26 27 28 29 29 30 30 30 31 31 32 32 32 33 33 33 33 34 34 35 36 37 38 38 39 39 39 39 40 40 40 42 43 43 44
16 14 11 9 8 8 9 9 9 8 8 8 10 12 14 16 16 17 19 21 23 25 25 26 26 26 26 26 25 25 25 25 25 26 27 28 29 29 30 30 31 32 32 32 33 33 33 34 34 34 34 34 35 35 36 37 38 39 40 41 41 41 41 41 43 44 45 45 44
10 8 7 7 8 9 10 10 10 10 10 12 14 16 17 17 17 19 21 24 25 26 26 26 26 26 26 25 25 25 25 26 26 27 28 29 30 30 31 31 32 33 33 33 33 34 34 34 34 34 34 34 35 36 37 38 39 41 42 43 43 43 43 43 43 42 40 38 36
8 7 7 8 9 10 11 11 11 12 14 15 16 17 17 17 18 20 23 26 26 26 26 25 25 25 25 25 25 25 26 26 27 28 29 30 30 31 32 32 33 33 33 34 34 34 34 34 35 35 35 36 36 38 39 40 41 42 42 42 41 40 39 38 36 34 32 30 29
9 9 9 9 10 11 12 12 13 15 16 16 17 17 16 17 19 22 25 26 26 25 25 25 25 25 25 25 25 26 27 27 28 29 29 30 31 32 32 33 33 34 34 34 34 35 35 35 36 36 37 38 39 40 41 41 40 38 36 35 33 32 30 29 28 28 27 27 27
12 11 11 11 12 13 14 14 15 15 16 16 16 16 16 18 22 24 26 25 24 24 24 25 25 25 25 25 26 27 27 28 29 29 30 30 31 32 33 33 34 34 34 34 35 35 36 36 37 38 39 40 40 40 38 35 32 29 27 26 25 25 25 25 26 27 28 28 29
14 13 12 13 13 14 15 15 15 15 15 15 15 16 18 21 24 25 25 23 23 23 24 24 24 25 25 26 26 27 28 29 29 30 30 31 31 32 33 34 34 34 34 35 35 36 37 38 39 40 40 39 37 34 30 26 23 21 21 22 22 23 25 26 27 29 30 30 31
15 14 13 13 14 15 15 15 14 14 14 14 15 18 21 24 25 24 23 23 23 23 24 24 25 25 25 26 26 27 28 29 30 30 31 31 32 33 34 34 34 35 35 35 36 37 38 39 40 39 37 33 29 24 21 20 20 20 21 22 23 25 27 28 30 31 31 31 31
13 12 12 13 14 15 14 14 13 13 13 15 18 21 23 24 24 23 22 22 23 24 24 25 25 25 26 26 27 27 28 29 30 31 31 32 32 33 34 34 35 35 35 35 36 38 39 39 38 35 30 25 21 19 19 20 22 23 24 25 27 28 30 31 32 32 31 31 31
10 11 12 13 13 13 12 11 11 12 15 18 21 23 24 23 22 22 22 22 23 24 24 25 25 25 26 26 27 28 29 30 30 31 32 32 32 33 33 34 35 35 36 36 37 38 38 37 32 27 22 19 19 20 21 23 24 25 27 29 31 32 33 33 32 31 30 29 29
10 11 11 11 11 10 10 10 12 14 18 21 23 24 23 22 21 21 22 23 23 24 24 25 25 25 26 27 28 29 29 30 30 31 31 32 32 32 33 34 35 35 36 37 38 37 35 30 25 20 18 18 20 21 23 24 26 28 30 32 33 33 32 30 29 28 27 27 27
11 11 10 10 9 9 10 12 15 18 21 24 24 23 22 21 21 22 22 23 23 23 24 25 25 26 27 28 29 29 30 30 30 30 31 31 31 32 32 33 34 36 37 37 36 33 28 24 20 18 18 19 21 22 23 25 27 30 31 32 31 30 28 26 25 25 25 26 26
11 10 9 9 9 10 12 15 19 22 24 24 23 22 21 21 22 22 23 23 23 23 24 25 26 27 27 28 28 29 30 30 30 30 30 30 31 31 32 33 35 37 37 36 32 27 23 21 19 19 19 19 21 22 24 27 29 30 31 30 29 28 27 27 27 28 30 31 33
10 10 9 10 11 13 17 20 23 24 24 23 21 21 21 22 22 23 23 23 24 24 25 25 26 27 27 27 28 28 29 29 30 29 30 30 30 31 32 34 35 36 35 31 27 23 21 20 20 19 18 19 21 24 26 28 29 30 30 30 31 31 32 33 35 36 37 37 38
Wind_Direction
290 288 288 286 278 263 248 238 232 228 224 221 225 222 214 212 212 213 217 223 226 227 227 226 226 226 227 229 233 239 245 250 254 258 260 262 265 267 269 272 275 279 282 285 287 288 289 289 289 288 287 286 287 288 290 292 293 293 292 291 290 289 288 286 284 283 282 281 280
296 294 292 289 281 263 244 232 225 223 221 219 219 215 209 208 209 211 216 224 224 223 222 221 220 223 229 236 242 248 253 257 260 262 263 265 268 271 274 277 280 283 286 287 288 288 288 288 288 287 286 287 288 290 292 293 294 293 293 292 291 290 289 287 285 284 282 281 281
303 301 297 291 278 258 239 227 222 222 221 214 209 205 203 204 205 211 216 216 216 216 217 219 221 226 233 242 248 252 256 259 262 264 266 269 272 275 278 281 284 286 287 288 287 287 287 288 287 286 286 287 289 291 292 293 294 294 293 292 292 291 290 288 287 286 284 283 282
308 304 298 286 268 248 236 232 227 221 214 209 204 202 202 204 208 211 212 212 215 218 220 223 229 235 241 247 250 253 254 256 259 263 267 271 275 278 281 284 286 287 287 287 287 287 287 286 285 285 286 287 289 290 291 292 293 293 292 292 291 291 290 289 288 287 286 284 283
309 303 294 279 258 244 237 230 223 215 209 206 203 202 204 209 211 212 214 219 224 226 228 234 240 243 246 248 248 250 252 255 259 265 270 274 277 280 283 285 286 286 287 287 288 288 287 285 284 284 286 287 288 289 290 291 292 291 291 290 290 289 289 288 288 287 286 285 284
308 302 292 276 256 238 228 224 219 214 212 212 213 213 214 218 220 221 225 231 233 236 240 244 245 245 245 245 246 249 254 260 267 272 277 280 283 284 285 285 285 286 287 288 288 287 285 284 284 285 286 287 288 289 290 291 290 290 290 289 289 288 288 287 287 286 285 284 283
307 299 286 269 251 238 231 229 227 225 225 227 229 232 231 228 229 230 232 236 240 243 246 247 247 246 246 247 251 256 264 271 277 281 284 287 287 287 285 285 286 287 288 288 288 286 286 286 286 287 288 289 289 290 291 291 291 291 290 289 289 288 287 286 286 285 284 283 283
302 295 285 275 264 255 249 248 244 241 239 237 237 236 234 231 230 232 236 241 243 245 246 247 247 247 249 253 261 270 277 282 286 289 291 291 289 287 286 287 288 289 290 290 288 287 288 288 289 289 290 290 291 291 292 292 292 292 291 290 290 289 287 286 285 284 283 283 282
300 296 292 287 281 275 269 264 255 246 240 236 233 231 229 229 228 230 236 242 241 241 241 242 245 250 258 268 276 282 286 289 292 293 292 289 288 288 288 290 291 292 291 290 289 288 289 289 289 290 290 290 291 291 292 292 292 291 290 290 289 288 287 286 285 284 283 282 281
300 298 296 291 286 279 272 265 254 245 238 234 230 228 227 227 227 230 235 238 241 242 244 248 257 266 276 284 288 291 293 295 294 290 288 288 288 289 290 291 291 290 289 288 288 288 288 288 288 288 288 288 289 289 289 289 289 289 288 287 287 286 285 284 284 283 282 282 281
295 294 291 286 280 273 266 258 251 244 239 234 231 229 229 232 234 238 242 246 249 252 258 265 274 283 289 294 297 299 298 294 289 286 286 287 288 288 289 288 288 287 287 287 286 286 286 286 286 286 286 286 286 287 287 287 286 286 286 285 284 284 284 283 282 282 281 281 280
289 287 283 278 271 264 258 251 246 241 236 233 231 232 234 237 241 245 248 249 253 261 271 280 288 295 299 302 303 301 295 288 286 286 286 287 287 287 286 286 286 286 286 286 286 286 286 286 286 286 286 286 286 286 286 286 286 285 285 284 284 283 283 282 281 281 281 280 280
281 279 274 267 260 253 247 241 237 234 233 231 230 233 234 234 236 237 239 244 255 269 281 291 298 303 304 301 296 291 288 287 287 287 287 287 287 286 286 286 286 286 286 286 287 287 287 287 287 287 287 287 286 286 286 286 286 285 285 285 284 283 283 282 282 281 281 281 280
264 261 257 250 244 238 232 227 226 227 227 226 230 231 230 228 229 231 237 247 261 276 288 296 301 302 298 292 288 286 286 287 288 289 289 289 287 286 286 286 287 287 287 288 288 288 288 287 287 287 287 287 287 286 286 286 285 285 285 285 284 284 283 283 282 282 282 281 281
245 241 237 233 230 225 220 218 220 223 225 224 228 228 226 226 228 234 244 257 272 283 292 298 300 297 292 289 287 288 288 289 289 290 289 289 288 287 288 288 289 289 290 290 290 289 289 288 288 288 287 287 287 286 286 286 285 285 285 284 284 283 283 282 282 282 282 281 281
245 240 236 235 229 227 227 229 232 234 233 231 229 227 226 227 234 246 260 273 283 291 298 303 302 296 292 290 289 290 290 290 290 290 289 288 288 289 290 290 291 291 291 291 291 290 290 289 289 288 288 287 287 287 286 286 285 285 284 284 283 283 282 282 282 282 281 281 281
247 245 245 245 240 240 244 248 249 246 240 234 230 229 232 240 254 268 280 288 295 302 310 312 305 297 293 292 291 291 290 289 290 290 289 289 289 290 291 291 291 291 291 291 291 290 290 290 290 289 289 288 287 287 287 286 286 285 284 284 283 283 282 282 282 282 282 282 281
253 254 254 252 252 252 253 253 251 246 239 235 236 241 250 264 277 286 294 300 309 316 319 313 303 296 293 292 291 290 290 290 290 290 290 290 291 292 292 292 291 291 291 291 290 290 291 291 291 290 290 289 289 289 288 288 287 287 286 286 285 284 284 284 283 283 283 283 283
261 262 261 259 257 253 250 246 242 240 239 243 249 260 272 283 292 299 307 316 322 321 313 304 298 294 292 291 290 290 291 291 291 291 292 292 292 292 292 291 291 291 291 291 291 291 291 292 292 292 292 292 291 291 291 291 290 289 289 288 288 287 287 286 286 286 286 286 285
266 265 261 256 251 246 243 241 241 243 247 255 266 278 288 296 303 312 322 325 322 312 302 295 292 291 290 290 291 291 292 292 292 292 292 292 292 291 291 291 291 291 292 292 292 293 293 294 294 295 294 294 294 293 293 292 292 291 290 290 289 289 288 288 288 287 287 286 285
263 258 251 245 241 239 239 242 246 252 260 271 283 292 300 307 317 324 324 316 307 298 293 290 290 290 291 292 292 292 292 292 292 292 291 291 291 290 291 291 292 293 293 294 295 295 296 296 297 296 296 296 295 294 294 293 293 292 291 291 290 289 289 288 287 286 284 283 282
257 251 243 237 235 235 236 241 250 262 274 286 295 303 312 319 322 317 309 301 294 291 290 290 291 293 293 293 292 291 291 291 291 291 290 290 291 291 292 293 294 295 296 297 297 298 298 298 298 298 297 297 296 295 295 294 293 293 292 291 290 289 287 286 284 283 281 280 278
260 254 240 231 229 230 235 245 261 276 287 296 303 311 317 318 312 303 296 292 290 290 291 292 294 294 295 294 293 291 290 290 291 291 291 292 293 294 295 296 297 297 297 298 298 299 299 299 299 299 298 297 297 296 295 295 294 293 291 290 289 287 286 284 282 281 279 278 277
247 242 233 228 229 235 247 263 278 288 294 299 305 312 314 309 300 293 289 287 288 290 292 294 295 295 295 294 293 292 291 291 292 293 294 295 296 297 298 298 298 298 298 299 299 299 299 299 299 299 299 298 297 296 295 294 292 291 289 288 287 286 285 283 282 281 280 279 278
242 238 236 238 246 257 269 279 287 292 296 300 306 309 306 297 289 283 281 282 287 293 296 297 297 296 295 294 293 293 293 294 295 296 297 298 299 299 299 299 298 298 299 299 299 299 299 299 298 298 298 297 296 295 293 292 290 289 288 287 286 285 284 284 283 283 282 281 280
254 253 257 262 269 275 280 285 289 293 296 301 304 302 294 285 278 274 276 284 293 299 300 300 300 298 297 296 296 296 297 298 298 299 299 300 300 300 299 299 299 299 299 299 299 298 298 297 297 296 296 295 294 292 291 290 289 288 287 286 286 285 285 284 284 283 283 282 282
272 274 277 280 282 284 287 290 293 295 298 300 296 290 282 273 268 271 280 292 300 305 306 305 303 302 300 300 300 300 301 301 302 301 301 301 300 300 300 299 299 299 299 298 298 297 297 296 295 295 294 293 292 291 290 289 288 288 287 286 286 285 285 285 285 284 284 283 283
286 287 288 288 289 292 295 298 299 299 297 295 286 275 267 263 266 276 290 301 307 310 310 309 307 305 304 303 303 304 304 304 304 303 302 302 301 301 300 300 299 299 298 298 297 297 296 295 295 294 293 292 291 290 289 288 287 287 287 286 286 286 286 286 286 285 285 285 285
290 289 288 289 292 297 300 300 297 294 288 278 268 262 261 264 272 285 298 307 312 313 312 309 308 307 306 306 307 307 307 306 305 304 304 303 302 301 300 300 299 299 298 298 297 297 296 296 295 294 293 291 290 288 287 287 286 287 287 287 287 287 287 287 287 287 287 287 288
288 283 283 287 292 295 295 292 287 278 269 262 260 261 264 270 280 294 305 312 314 313 311 310 308 308 308 309 309 308 307 306 306 305 304 303 302 301 300 300 299 299 299 299 298 298 297 297 296 294 293 291 290 288 287 287 287 287 287 287 288 288 288 287 287 288 289 289 290
285 283 282 282 285 286 284 278 270 263 259 259 261 264 269 276 288 301 311 315 315 313 311 310 309 309 309 310 309 308 306 306 305 304 303 302 302 301 300 300 300 300 300 300 300 299 298 297 296 295 294 293 292 291 290 290 289 289 289 289 289 289 289 289 289 290 291 292 292
289 286 280 273 273 274 271 265 260 257 258 259 262 265 271 283 298 310 316 318 316 313 310 309 309 309 310 309 308 307 306 305 304 304 303 303 302 302 301 301 301 301 301 301 300 300 299 298 297 297 296 295 295 294 293 293 292 292 291 291 290 290 290 291 291 291 292 292 292
289 284 275 265 262 261 259 257 255 255 256 258 260 267 279 295 309 317 320 318 314 311 309 309 309 309 308 307 306 305 305 304 304 304 304 303 303 303 302 302 301 302 302 302 301 300 300 299 299 298 298 298 298 297 296 295 294 293 292 292 291 290 290 290 290 291 291 292 293
286 280 271 261 256 254 253 252 252 254 256 259 266 278 295 309 318 322 321 317 312 309 308 307 307 307 306 305 305 304 305 305 305 305 305 304 304 303 303 302 302 302 302 302 301 301 301 300 300 301 301 301 300 299 298 297 296 295 293 292 290 289 288 289 290 292 293 294 295
284 277 267 257 251 249 248 250 253 257 262 271 283 296 309 318 323 323 319 314 310 307 307 306 306 305 305 305 305 305 306 306 306 306 305 305 304 304 303 303 303 303 303 302 302 302 302 302 303 303 303 303 302 301 301 302 301 299 297 295 293 293 293 294 295 296 297 297 297
280 268 255 247 244 245 247 252 258 266 276 287 300 310 318 323 325 321 316 310 308 306 306 306 307 306 307 307 307 307 307 307 307 306 306 305 305 305 305 304 303 303 303 303 303 303 304 304 304 305 305 305 306 308 308 308 306 304 303 302 302 302 302 302 302 301 300 299 298
263 248 239 236 238 242 248 257 267 278 290 301 311 319 324 326 322 317 312 309 308 308 308 309 309 309 309 309 309 308 308 307 307 307 307 307 307 306 305 304 304 303 303 304 304 305 305 306 306 307 308 311 313 313 312 311 309 308 308 309 308 308 307 306 305 303 301 299 298
240 233 231 232 237 245 257 269 280 293 304 313 320 325 326 323 317 313 311 310 310 310 310 311 311 311 310 310 309 309 308 308 308 308 308 308 307 306 305 304 303 303 304 305 306 306 307 308 309 311 314 316 316 315 313 312 311 310 311 311 310 310 309 307 305 302 300 298 297
232 230 231 236 247 260 273 283 294 305 314 322 326 327 324 318 314 312 313 313 313 313 312 312 311 311 311 310 310 309 309 309 309 309 309 308 307 306 304 304 303 304 305 306 308 309 310 312 314 316 317 317 315 314 313 312 311 311 311 311 311 311 309 307 304 301 299 297 295
235 235 239 249 262 275 286 296 306 315 322 327 327 324 318 314 314 314 315 316 315 314 313 312 311 311 311 311 310 310 310 310 310 310 309 308 306 305 304 304 304 305 306 308 311 313 316 319 319 319 317 316 314 313 312 311 310 310 310 310 310 309 308 305 302 299 298 296 295
241 245 253 264 276 288 300 309 317 322 326 327 323 318 315 315 315 317 317 317 316 314 313 311 311 311 311 311 311 311 311 311 310 310 309 307 306 305 304 304 305 307 309 313 316 320 322 322 321 319 317 315 313 312 312 311 310 310 309 308 307 305 303 302 300 299 298 298 298